Alliance, NE

8:29 PM MDT on June 24, 2017 (GMT -0600)
Alliance Municipal

Weather History for KAIA - December, 2012

Change the Weather History Date:

Friday, December 14, 2012

  Actual Average Record
Temperature  
Mean Temperature 28 °F 23 °F  
Max Temperature 41 °F 38 °F 63 °F (1998)
Min Temperature 14 °F 8 °F -32 °F (1901)
Degree Days  
Heating Degree Days 37 42  
Month to date heating degree days 458 568  
Since 1 July heating degree days 2021 2367  
Cooling Degree Days 0 0  
Month to date cooling degree days 0 0  
Year to date cooling degree days 959 564  
Moisture  
Dew Point 17 °F    
Average Humidity 59    
Maximum Humidity 80    
Minimum Humidity 38    
Precipitation  
Precipitation 0.00 in 0.01 in 0.80 in (1902)
Month to date precipitation T 0.21  
Year to date precipitation 6.77 15.55  
Sea Level Pressure  
Sea Level Pressure 29.71 in    
Wind  
Wind Speed 3 mph (SE)    
Max Wind Speed 12 mph    
Max Gust Speed 14 mph    
Visibility 10 miles    
Events      
T = Trace of Precipitation, MM = Missing Value Source: NWS Daily Summary

Daily Weather History Graph

Daily Weather History Graph

Search for Another Location

Airport or City:

Trip Planner

Search our weather history database for the weather conditions in past years. The results will help you decide how hot, cold, wet, or windy it might be!

Date:

Astronomy

Dec. 14, 2012 Rise Set
Actual Time 7:12 AM MST 4:20 PM MST
Civil Twilight 6:40 AM MST 4:52 PM MST
Nautical Twilight 6:05 AM MST 5:27 PM MST
Astronomical Twilight 5:31 AM MST 6:01 PM MST
Moon 8:17 AM MST (12/14) 6:16 PM MST (12/14)
Length of Visible Light 10h 11m
Length of Day
9h 08m
Waxing Crescent, 3% of the Moon is Illuminated
Dec 14
Waxing Crescent
Dec 19
First Quarter
Dec 28
Full
Jan 4
Last Quarter
Jan 11
New

Hourly Weather History & Observations

Time (MST) Temp. Windchill Dew Point Humidity Pressure Visibility Wind Dir Wind Speed Gust Speed Precip Events Conditions
12:53 AM 28.0 °F 19.3 °F 16.0 °F 61% 29.89 in 10.0 mi SSE 9.2 mph - N/A   Clear
1:53 AM 27.0 °F 21.6 °F 15.1 °F 61% 29.88 in 10.0 mi East 4.6 mph - N/A   Clear
2:53 AM 23.0 °F 14.7 °F 14.0 °F 68% 29.86 in 10.0 mi SE 6.9 mph - N/A   Clear
3:53 AM 21.2 °F 13.6 °F 12.2 °F 68% 29.80 in 10.0 mi SSE 5.8 mph - N/A   Clear
4:53 AM 21.2 °F - 15.8 °F 80% 29.79 in 10.0 mi Calm Calm - N/A   Clear
5:53 AM 21.0 °F 16.2 °F 14.0 °F 74% 29.88 in 10.0 mi WNW 3.5 mph - N/A   Clear
6:53 AM 15.1 °F 9.4 °F 10.9 °F 84% 29.86 in 10.0 mi SE 3.5 mph - N/A   Clear
7:53 AM 18.0 °F - 12.0 °F 78% 29.83 in 10.0 mi Calm Calm - N/A   Clear
8:53 AM 25.0 °F - 17.1 °F 72% 29.81 in 10.0 mi Calm Calm - N/A   Clear
9:53 AM 32.0 °F - 18.0 °F 56% 29.78 in 10.0 mi Calm Calm - N/A   Clear
10:53 AM 36.0 °F 33.3 °F 18.0 °F 48% 29.72 in 10.0 mi NW 3.5 mph - N/A   Clear
11:53 AM 37.9 °F - 18.0 °F 45% 29.69 in 10.0 mi Calm Calm - N/A   Clear
12:53 PM 37.9 °F 33.5 °F 17.1 °F 43% 29.66 in 10.0 mi SE 5.8 mph - N/A   Mostly Cloudy
1:53 PM 41.0 °F 38.0 °F 18.0 °F 40% 29.61 in 10.0 mi SE 4.6 mph - N/A   Scattered Clouds
2:53 PM 39.9 °F 35.8 °F 18.0 °F 41% 29.61 in 10.0 mi ESE 5.8 mph - N/A   Clear
3:53 PM 36.0 °F 33.3 °F 17.1 °F 46% 29.62 in 10.0 mi East 3.5 mph - N/A   Clear
4:53 PM 34.0 °F - 17.1 °F 50% 29.61 in 10.0 mi Calm Calm - N/A   Mostly Cloudy
5:53 PM 32.0 °F - 17.1 °F 54% 29.62 in 10.0 mi Calm Calm - N/A   Mostly Cloudy
6:53 PM 32.0 °F - 18.0 °F 56% 29.62 in 10.0 mi Calm Calm - N/A   Mostly Cloudy
7:53 PM 30.0 °F - 18.0 °F 61% 29.61 in 10.0 mi Calm Calm - N/A   Overcast
8:53 PM 30.0 °F - 18.0 °F 61% 29.60 in 10.0 mi Calm Calm - N/A   Overcast
9:53 PM 30.9 °F - 19.0 °F 61% 29.58 in 10.0 mi Calm Calm - N/A   Overcast
10:53 PM 32.0 °F - 19.0 °F 59% 29.57 in 10.0 mi Calm Calm - N/A   Overcast
11:53 PM 30.0 °F 22.4 °F 19.0 °F 64% 29.57 in 10.0 mi WNW 8.1 mph - N/A   Overcast